Location: Brede
(50.9167°N, 0.6000°E)
Time: 21:14:29
(UTC+00:00)

Altair - Pass Details

Date: 04 August 2021
Orbit: 1501 x 1682 km, 47.2° (Epoch: 22 September)

Event Time Altitude Azimuth Distance (km) Brightness Sun altitude
Exits shadow 00:47:42 32° 188° (S) 2,425 7.9 -21.2°
Maximum altitude 00:51:05 42° 147° (SSE) 2,077 7.8 -21.1°
Drops below altitude 10° 00:59:31 10° 81° (E) 3,671 9.8 -20.8°
Sets 01:02:42 0° 75° (ENE) 4,645 10.4 -20.6°
